RH
83 75 61 40 19 15 19 19 20 24 27 33 43 50 52 57 59 58 57 58 59 56 50 49 45 32 17 12 10 8 10 12 12 13 19 28 44 62 72 71 62 51 56 75 84 79 81 82 68 48 26 8 5 8 9 10 16 30 42 37 23 14 12
85 77 65 42 19 18 22 21 24 26 28 37 49 56 59 61 63 62 61 61 60 57 53 50 48 37 21 13 11 9 10 13 13 13 16 24 35 49 65 73 70 61 57 65 75 76 77 84 83 72 53 26 9 5 7 9 10 15 29 39 32 19 13
85 77 69 49 27 25 27 25 27 28 30 42 54 61 64 65 65 64 63 63 63 59 55 53 50 42 27 16 12 10 11 13 14 15 15 20 30 38 52 68 74 71 64 58 63 68 70 77 85 86 75 50 23 8 5 7 8 9 15 29 35 27 16
85 77 71 57 41 35 34 32 32 31 34 48 61 66 69 69 67 65 64 64 64 61 57 55 53 46 31 19 14 11 11 13 15 16 15 17 25 33 42 60 74 78 70 57 56 60 63 70 82 87 82 62 36 16 7 5 7 8 9 16 29 32 23
88 80 72 65 57 48 42 39 36 35 43 56 67 73 76 74 70 66 64 66 66 63 60 56 54 50 35 21 16 12 11 14 15 16 17 16 21 29 37 52 69 79 73 61 57 58 59 67 78 82 76 60 39 22 11 6 5 7 8 9 18 29 29
92 89 81 76 71 59 49 45 39 39 50 64 75 82 83 78 73 68 65 68 68 65 62 58 55 52 39 23 16 13 11 13 15 16 18 17 19 27 36 46 60 75 75 66 66 63 57 64 77 77 67 52 37 23 13 8 5 5 7 7 10 21 29
91 92 88 88 86 70 55 49 46 45 55 71 83 89 89 82 75 70 67 69 70 67 65 61 56 52 41 24 16 13 11 13 15 16 17 17 18 23 33 41 51 69 74 71 78 74 57 62 80 80 66 50 34 23 14 8 6 4 6 7 6 12 23
89 89 88 95 99 86 68 57 53 54 61 75 88 92 92 86 76 71 70 70 72 70 69 65 57 52 42 25 16 13 11 13 15 15 16 17 17 20 29 39 47 62 72 76 86 81 59 60 82 88 75 52 29 18 14 10 6 4 4 6 6 7 16
86 88 91 99 103 98 86 68 60 63 68 78 92 95 94 89 79 73 71 71 75 74 72 67 58 51 42 25 15 13 11 13 15 14 14 16 16 18 25 37 47 58 70 80 85 77 58 61 85 98 85 54 21 10 12 11 7 5 3 5 6 5 10
87 91 97 101 100 101 97 77 69 78 80 81 94 100 97 91 83 77 71 70 76 77 74 69 59 50 42 26 15 13 11 12 16 14 13 14 14 16 21 32 46 57 69 79 81 75 64 66 89 102 86 55 23 8 9 11 9 7 4 4 5 5 7
91 94 98 98 97 101 98 82 80 95 92 84 93 101 99 94 87 80 73 69 74 77 75 72 60 50 43 27 15 14 11 12 16 14 12 13 13 14 17 27 42 54 67 77 79 80 77 75 89 98 81 61 40 16 7 11 11 8 6 3 5 5 5
95 94 92 93 95 97 94 83 86 102 98 86 93 100 99 98 92 84 76 69 71 75 76 74 63 51 45 30 16 14 12 12 16 15 12 12 13 13 15 24 39 51 64 76 81 87 93 87 88 91 82 78 65 29 7 10 11 9 9 3 4 6 4
99 97 93 90 91 90 86 80 82 93 94 89 95 101 99 99 97 89 79 71 70 74 76 76 65 53 47 34 18 14 13 12 15 16 12 11 12 12 13 21 36 47 60 79 88 94 102 96 85 86 90 96 86 41 8 9 12 9 10 6 3 6 5
103 101 95 88 87 85 81 80 77 78 85 93 99 101 99 99 99 94 84 75 71 74 78 77 68 56 50 39 22 15 14 12 14 15 13 11 11 12 13 19 33 44 59 82 95 96 102 94 80 86 97 103 97 56 11 6 13 9 9 8 4 5 5
103 104 95 82 82 83 81 85 84 79 86 98 102 100 99 100 100 97 90 80 74 76 79 79 72 60 53 44 26 16 15 12 13 14 12 11 11 10 13 19 30 43 61 85 96 97 101 88 72 84 99 101 102 72 20 3 12 10 8 9 6 5 6
101 106 94 73 74 84 84 90 93 85 86 98 101 99 99 100 100 98 94 86 78 78 80 80 76 64 57 48 30 18 17 13 12 13 12 11 11 10 13 18 28 44 65 88 98 100 106 91 68 78 95 97 104 85 30 3 9 10 8 9 6 6 7
104 102 82 59 65 84 91 98 103 91 84 96 103 100 98 101 102 98 95 90 83 79 79 81 79 68 60 53 35 21 17 14 11 12 12 11 11 10 13 17 28 45 68 91 100 102 109 95 70 74 87 91 104 90 35 3 7 9 8 8 5 7 9
100 92 69 50 56 74 88 103 108 91 83 95 104 100 98 102 103 98 93 90 86 82 79 80 80 72 64 56 40 24 18 15 12 11 12 12 10 11 12 16 28 48 71 92 100 102 107 93 74 80 84 83 101 90 34 2 7 8 8 9 5 5 9
79 67 54 43 43 55 79 106 110 93 87 97 102 101 99 101 103 99 92 90 89 85 81 81 81 74 66 58 44 27 18 17 14 11 12 12 10 11 12 14 28 50 73 93 101 101 101 88 79 91 91 84 99 87 31 2 8 7 6 10 5 4 8
55 41 35 31 31 38 59 90 103 97 96 100 101 101 100 99 103 101 93 91 92 87 83 82 82 76 68 60 46 28 19 18 15 11 12 12 10 11 12 13 27 50 74 94 99 92 86 78 81 98 98 90 98 87 38 6 7 7 6 9 7 4 6
33 26 25 25 28 31 36 54 79 95 101 100 99 101 100 99 102 101 95 93 93 89 85 84 83 77 68 61 49 30 20 19 16 11 12 12 10 11 12 13 25 48 73 91 93 84 75 74 86 102 101 93 98 96 65 25 6 6 9 8 8 8 6
23 22 24 25 28 30 30 39 61 84 98 101 99 100 100 100 101 101 100 97 93 90 88 85 83 78 69 61 50 32 20 19 16 12 12 13 11 11 11 13 22 45 71 85 87 81 70 67 83 100 102 98 98 102 92 56 16 5 10 9 8 10 9
23 23 25 27 29 31 33 36 47 68 91 101 101 100 100 100 100 101 101 100 95 91 89 85 83 78 69 62 51 34 21 19 17 14 13 13 13 11 11 13 18 37 64 80 84 83 70 62 78 99 102 100 99 100 102 85 42 11 7 10 10 10 10
23 24 28 30 32 34 35 34 39 62 92 103 100 100 101 100 100 101 101 99 95 91 90 86 83 79 71 62 52 35 23 19 18 17 15 14 14 12 10 12 15 27 53 74 81 84 74 60 73 97 103 100 101 98 100 101 78 39 13 8 11 11 10
27 31 35 37 38 38 37 34 36 55 86 102 100 100 101 100 100 100 100 98 93 91 90 86 82 79 72 63 53 38 24 20 20 19 17 15 15 13 10 12 13 20 43 67 77 83 77 61 66 91 103 100 101 101 97 101 101 76 39 14 10 11 11
33 38 41 41 42 41 39 38 38 47 72 95 102 100 100 100 100 100 100 97 92 92 91 85 81 79 73 64 55 40 26 21 21 21 20 17 16 15 12 11 12 16 34 58 73 80 81 70 65 81 97 98 98 101 100 98 102 99 74 39 18 13 13
36 41 42 40 41 41 39 42 45 45 55 80 100 101 99 101 101 100 100 97 93 92 91 84 80 79 74 66 57 42 27 22 22 23 22 19 17 16 14 11 11 13 24 46 66 76 80 77 71 74 89 98 98 99 101 99 98 103 95 69 41 26 18
38 39 42 40 39 40 40 43 48 45 45 66 94 103 99 100 102 100 99 98 95 93 91 85 81 80 75 67 58 46 31 23 23 24 24 23 20 18 16 13 12 12 17 33 56 71 77 81 79 75 82 97 101 99 100 101 99 100 100 92 78 61 40
44 41 42 42 39 40 40 41 45 43 39 55 86 103 100 99 101 101 99 99 97 94 91 86 82 80 77 68 59 49 35 26 25 26 26 26 23 20 19 16 13 13 14 22 42 63 74 80 83 79 79 91 101 101 100 101 100 100 100 100 100 91 68
45 48 46 44 40 38 40 39 39 38 33 41 70 97 102 99 100 101 99 99 97 94 92 87 81 80 79 70 60 51 39 29 27 29 29 29 27 23 22 19 15 13 14 17 29 51 69 78 82 81 81 87 96 101 101 100 100 100 100 100 101 100 88
38 47 48 45 39 36 38 36 31 31 30 31 54 89 103 99 100 102 99 98 96 94 92 88 81 80 81 73 61 53 43 33 30 32 32 32 31 27 25 23 19 15 14 15 20 37 58 72 79 81 82 85 92 99 101 100 100 100 100 99 99 101 100
29 39 41 40 36 33 33 30 23 24 27 28 50 86 104 99 99 102 99 97 97 95 93 89 82 81 84 77 64 56 48 37 33 34 35 35 35 32 29 27 24 18 15 15 16 25 43 62 74 79 81 84 89 96 100 101 100 100 100 100 99 99 100
23 31 32 31 30 27 25 22 18 21 25 28 50 87 104 99 99 102 99 98 99 97 93 90 84 83 86 80 66 58 52 43 37 38 39 37 37 37 34 31 29 23 18 16 15 18 29 46 63 75 80 82 86 91 96 101 101 100 100 100 100 100 100
18 23 23 23 23 21 20 19 17 20 24 28 50 86 103 100 99 101 98 98 100 98 94 92 85 83 87 83 70 61 57 49 42 41 43 41 39 39 37 35 33 29 23 18 15 15 19 30 47 64 75 80 83 86 91 98 101 100 100 100 99 99 100
16 18 18 18 18 17 18 18 17 20 26 30 48 82 102 100 99 101 98 98 101 99 97 93 87 84 89 87 74 64 61 56 48 46 47 46 43 42 41 39 37 35 29 22 17 16 16 20 30 47 63 74 80 82 85 92 99 100 100 100 100 100 100
17 17 16 17 18 18 19 19 18 22 27 30 50 84 102 100 99 101 99 99 102 101 98 95 89 87 93 92 79 67 65 63 56 51 51 51 48 46 45 43 42 40 34 28 21 17 16 17 20 30 45 61 73 79 82 86 93 99 101 100 100 100 101
Wind_Speed
44 46 45 45 45 44 43 44 46 48 50 51 53 55 57 58 59 60 61 61 62 62 63 65 66 67 66 65 64 63 61 58 53 47 42 37 33 35 39 41 45 43 37 34 34 32 30 30 28 25 23 24 30 44 59 71 79 84 85 84 85 90 96
44 45 45 44 44 43 43 44 45 47 49 50 52 53 55 57 58 59 60 60 60 61 62 63 65 66 65 64 63 62 60 58 53 47 42 38 34 33 37 40 43 44 40 35 34 31 29 29 30 28 26 25 26 34 48 63 74 81 86 88 86 88 93
44 46 45 44 44 43 43 43 45 46 48 49 51 52 54 56 57 58 59 59 59 60 61 62 64 66 65 64 63 62 60 58 54 48 43 39 35 33 35 39 41 43 41 38 35 33 30 29 30 31 30 28 26 29 39 53 67 77 85 89 90 89 91
45 46 45 44 44 44 43 43 44 46 47 49 50 51 53 54 56 57 58 58 58 58 59 61 63 65 65 64 63 61 60 58 54 49 44 40 36 33 33 36 39 41 42 40 37 34 32 31 32 33 34 32 29 29 34 44 59 72 81 88 92 91 91
44 45 45 45 44 45 44 43 43 45 46 48 49 50 52 53 55 57 58 57 57 58 59 60 62 64 65 63 62 61 59 58 55 50 45 41 37 34 33 34 37 39 41 42 39 36 35 34 33 34 35 34 31 29 32 38 51 65 77 85 91 93 92
42 44 45 46 45 45 44 43 43 44 45 47 49 49 51 52 54 56 57 57 57 57 58 60 62 63 64 63 61 61 59 57 55 51 45 42 38 35 33 34 35 37 40 42 40 38 36 35 36 36 35 34 33 30 31 35 44 58 72 81 88 94 94
41 44 45 45 46 47 45 43 43 44 45 46 48 49 50 51 54 55 56 56 56 57 58 59 61 62 63 62 61 60 59 57 56 52 47 42 39 35 32 32 34 36 40 41 40 40 39 37 38 40 39 36 34 32 30 32 38 50 65 78 85 92 96
42 44 45 45 47 48 46 44 44 44 44 46 47 48 49 51 53 54 55 55 55 56 57 58 60 62 63 62 60 59 59 58 57 54 48 43 39 36 32 31 32 35 38 39 39 40 40 39 39 41 42 39 35 33 31 31 35 43 57 72 83 90 95
43 44 44 45 47 48 47 45 44 44 45 45 46 48 48 50 52 53 54 54 55 55 56 58 60 61 62 61 59 58 58 58 57 56 51 44 39 36 32 30 31 33 36 37 38 39 39 40 40 41 44 42 36 32 30 29 31 38 50 66 79 88 93
43 42 43 45 48 48 47 45 45 46 47 46 46 47 47 49 52 53 53 54 54 55 56 57 59 60 61 61 59 57 58 58 58 58 55 48 41 36 32 29 29 32 34 36 38 39 40 41 41 41 42 41 36 32 28 27 29 34 43 58 73 84 91
42 41 42 44 47 48 48 46 45 48 50 49 46 46 46 48 51 52 53 53 54 54 55 56 58 59 60 60 58 57 57 58 59 59 57 52 44 37 32 29 27 29 32 34 37 39 42 43 42 40 40 39 38 35 28 24 26 30 38 50 65 79 88
43 43 43 44 46 47 47 45 43 46 50 49 46 45 46 48 50 52 52 53 53 54 54 55 57 59 60 60 58 57 57 58 59 60 59 54 46 38 33 29 27 28 30 33 36 39 43 45 42 39 38 40 41 39 31 23 23 27 34 43 57 73 84
44 44 43 45 47 47 46 43 42 44 47 47 46 46 46 47 50 51 52 52 53 54 53 54 55 57 59 59 58 56 57 57 58 60 60 56 48 39 33 29 27 28 29 32 36 39 43 44 41 36 37 41 43 42 35 25 21 24 30 38 50 66 80
44 44 44 47 48 47 45 43 43 44 44 45 47 47 46 48 50 51 52 52 53 53 53 53 54 56 58 59 58 57 56 56 57 59 59 57 49 40 34 28 26 27 28 31 35 38 41 42 37 33 36 41 44 44 38 27 20 20 26 34 44 59 74
45 46 47 49 48 46 44 44 44 45 43 44 48 48 46 48 51 51 52 52 53 53 52 52 53 55 57 58 57 56 56 56 56 57 58 56 49 41 33 27 24 24 25 28 33 36 39 38 33 31 35 40 44 45 40 29 20 18 23 31 40 52 67
46 47 48 48 46 44 44 44 45 45 43 44 47 48 47 48 51 52 52 52 53 53 52 51 52 54 56 58 57 56 55 55 55 56 57 56 49 41 34 27 22 21 22 26 31 34 38 37 32 31 35 39 43 47 43 32 21 16 18 26 36 46 59
45 46 46 46 44 42 42 44 46 45 43 44 48 49 49 49 50 51 52 51 52 52 51 51 52 53 56 57 57 56 55 55 55 55 56 55 49 41 34 27 21 19 20 24 29 31 34 34 32 33 36 39 43 47 44 34 23 15 13 20 31 43 55
42 43 44 43 43 40 38 41 46 46 43 44 48 49 50 50 49 49 51 52 51 52 51 51 51 53 55 56 56 56 55 54 54 54 55 55 49 40 33 26 20 18 19 23 26 29 31 31 31 33 36 38 41 45 43 35 25 15 10 15 27 38 51
39 40 41 41 41 40 37 38 45 46 42 44 49 50 50 50 48 48 51 51 51 51 51 50 51 52 54 56 56 55 54 54 54 53 54 54 50 41 33 26 18 16 17 21 24 27 28 28 28 30 35 38 39 42 42 36 27 16 8 10 22 34 45
37 37 38 38 39 39 37 38 42 43 42 45 49 50 49 48 47 47 50 51 50 50 50 50 50 51 53 55 55 54 54 53 53 53 53 54 50 41 33 26 18 14 15 18 21 23 23 23 25 29 33 36 37 39 40 37 29 18 9 4 16 29 40
34 35 36 37 37 38 38 38 38 39 42 46 49 50 49 48 47 47 49 50 49 50 49 49 50 50 52 53 53 53 53 53 52 52 52 53 51 42 33 26 18 13 13 16 18 20 20 19 22 28 30 32 34 37 39 38 32 23 13 2 9 22 34
34 35 36 36 36 37 39 38 36 36 40 44 47 48 48 48 47 47 47 47 49 50 49 49 49 49 50 52 52 51 52 51 50 51 51 52 51 44 34 25 18 13 12 15 16 17 18 18 20 25 27 28 31 34 37 39 36 29 19 8 5 15 27
35 35 35 35 36 37 39 39 37 35 36 40 44 47 48 47 47 45 44 45 48 50 49 48 47 48 48 50 51 50 50 49 48 49 50 50 51 47 36 27 19 13 12 14 14 15 17 17 19 22 23 25 28 30 33 36 37 32 25 15 7 11 20
35 35 35 35 36 37 39 40 38 35 35 38 44 47 47 47 46 44 43 45 47 49 48 46 46 46 46 48 49 48 47 47 46 47 48 49 50 48 39 29 21 14 12 13 13 13 15 16 17 19 19 20 23 26 28 31 34 33 29 22 13 10 15
34 33 33 34 35 37 39 40 38 35 35 38 43 46 47 46 45 43 43 45 47 47 47 45 44 44 44 45 47 47 46 45 44 44 46 47 48 48 42 32 23 15 12 12 12 12 13 14 15 17 16 15 18 22 23 26 30 30 29 25 18 12 13
34 32 32 33 35 37 40 40 39 37 36 37 41 44 45 45 44 43 42 44 46 46 45 44 43 42 42 43 45 45 44 43 42 42 44 45 46 47 45 37 27 17 11 11 12 11 11 12 14 14 14 13 14 17 19 22 25 27 26 23 20 16 13
35 33 33 33 35 38 40 41 41 40 38 37 39 41 41 42 42 42 42 43 44 43 43 43 41 40 40 41 43 44 42 40 40 40 41 43 44 45 45 40 31 21 12 10 11 11 10 10 12 12 12 13 13 13 15 17 19 22 23 22 20 18 14
38 36 35 34 35 38 41 42 42 42 39 36 36 38 38 39 40 40 40 42 42 41 41 41 40 39 39 40 41 42 40 39 39 38 39 41 42 43 45 42 35 26 16 9 9 10 10 8 9 10 10 11 11 11 12 14 14 15 17 19 18 17 16
40 40 38 37 37 38 41 42 42 42 40 35 34 35 36 36 37 37 38 39 39 39 40 40 39 37 37 38 40 41 39 38 38 38 38 40 41 42 43 43 38 30 21 11 8 10 10 9 7 8 8 8 9 10 10 11 12 12 12 14 14 14 14
39 41 40 39 38 39 41 43 43 42 40 34 32 34 34 34 34 35 35 36 37 38 39 39 38 36 35 36 38 40 39 36 36 37 37 39 40 41 41 42 40 34 25 15 8 9 10 10 7 5 6 6 7 9 9 9 10 10 10 10 10 10 11
36 38 38 38 38 39 41 42 42 42 39 33 30 31 32 32 32 33 33 34 36 37 37 38 37 34 34 35 37 38 38 35 34 35 35 36 39 40 40 41 41 37 29 20 11 8 10 10 9 6 4 4 4 7 8 8 7 7 8 8 8 8 9
34 35 36 36 37 39 40 42 42 41 37 32 28 29 30 30 30 30 31 33 35 35 36 37 36 33 32 33 35 37 37 34 32 33 33 34 36 38 39 39 39 38 33 25 15 8 9 11 10 9 7 4 2 3 5 6 6 6 6 7 7 8 8
33 33 35 36 37 39 40 41 41 39 35 31 27 27 28 29 29 29 30 32 33 34 35 36 34 32 31 32 34 36 36 33 31 31 32 32 32 34 36 36 37 37 35 29 21 12 8 11 12 11 9 7 5 2 1 2 4 5 4 5 6 8 9
33 33 34 35 37 38 40 40 39 37 34 30 27 26 27 27 27 28 29 31 32 33 35 35 33 31 30 30 32 34 35 33 30 30 30 30 30 31 33 35 35 36 36 33 26 18 10 8 12 13 12 11 9 7 4 2 2 2 3 4 6 7 9
33 33 33 34 36 37 38 38 37 35 33 30 27 25 24 24 25 27 28 29 31 32 33 33 31 30 28 29 31 33 34 32 30 29 29 29 29 29 31 33 34 34 34 34 30 24 16 9 10 14 15 13 12 11 9 8 6 5 4 4 5 6 8
32 32 32 33 35 36 36 36 36 34 31 28 26 24 22 22 24 26 27 28 30 31 31 31 30 28 27 28 29 31 33 32 29 28 28 28 28 28 29 30 31 32 31 32 31 28 21 14 8 11 15 16 15 14 13 12 11 10 9 7 7 6 7
Wind_Direction
307 309 311 312 313 314 319 324 326 329 331 332 333 333 334 335 336 337 338 339 340 341 343 344 345 345 345 346 346 345 345 342 338 335 331 327 324 323 325 329 331 336 341 342 339 339 339 338 336 328 306 276 247 232 227 225 221 219 218 217 215 214 213
308 310 312 312 312 315 320 324 327 330 332 332 333 333 334 335 336 337 338 339 340 341 343 344 344 345 345 346 346 345 345 343 338 335 331 327 323 320 321 325 329 332 337 340 337 335 336 337 334 331 320 299 269 243 230 226 224 221 218 217 216 215 214
309 311 313 313 313 316 320 324 327 330 332 332 333 333 334 335 336 337 337 338 340 341 342 344 344 345 346 346 346 346 345 343 339 335 331 327 322 318 318 322 327 331 332 333 334 333 333 335 333 329 324 312 290 261 238 227 225 223 220 218 217 215 215
310 312 314 314 315 316 320 324 328 330 332 332 333 333 334 335 336 337 337 337 339 341 342 344 345 345 346 345 346 346 345 343 340 335 331 327 323 318 316 319 325 329 328 326 329 333 334 334 333 328 323 315 301 278 252 232 225 223 222 219 217 216 215
310 313 315 315 316 317 320 325 328 330 331 332 333 333 334 335 336 336 337 337 339 340 342 344 345 345 345 345 346 346 345 344 341 337 331 327 323 318 315 317 322 324 323 323 327 333 335 335 332 327 322 315 306 289 266 243 227 223 222 220 218 217 215
310 313 316 316 317 318 321 326 329 330 331 331 332 333 334 335 336 336 336 337 338 340 342 344 345 345 345 345 345 345 345 344 342 339 333 328 323 319 315 313 316 320 321 322 327 333 336 336 334 328 323 318 309 296 276 254 234 223 221 220 218 217 216
310 314 316 316 318 320 321 325 329 329 330 331 331 333 334 335 336 336 336 338 339 340 342 343 345 345 345 345 345 345 345 343 343 341 336 329 323 317 313 309 311 317 320 322 328 333 334 337 336 331 327 322 314 301 284 262 241 226 220 219 217 216 216
311 314 315 316 318 320 321 324 328 329 330 331 331 333 334 335 336 336 336 338 340 341 343 343 344 344 345 345 345 346 345 343 343 342 339 332 324 317 312 308 309 315 318 323 330 332 332 336 336 332 329 327 318 306 290 270 248 230 220 218 217 216 215
310 312 314 316 317 318 320 322 327 330 331 331 332 333 334 335 335 335 337 339 340 342 343 343 343 344 344 345 345 346 345 343 343 343 341 336 327 318 312 308 308 313 318 324 329 330 331 336 336 332 329 329 324 312 297 277 255 235 222 217 215 215 214
309 310 312 313 312 314 316 319 325 330 331 331 331 332 333 334 334 335 337 339 341 342 342 342 342 344 344 344 346 346 345 344 343 343 343 340 332 322 313 308 307 312 319 324 328 331 333 336 338 334 330 331 331 324 306 283 262 241 225 217 213 213 213
307 308 309 308 307 310 313 316 322 325 326 328 330 330 332 332 333 334 336 339 341 342 342 342 342 343 344 344 345 347 346 345 344 344 343 341 336 327 317 311 308 312 318 323 328 332 333 335 339 337 332 336 339 334 320 293 268 248 230 217 212 211 212
303 304 305 303 303 307 310 314 320 321 319 324 329 329 330 331 331 333 335 338 341 342 342 342 341 342 343 344 345 347 347 346 345 344 344 343 339 331 321 314 310 312 317 323 329 335 334 336 341 339 335 340 344 340 331 309 277 254 236 220 211 209 210
299 301 303 301 301 304 308 313 317 316 316 322 328 329 329 329 329 331 333 336 340 342 342 342 341 341 342 343 345 347 348 347 346 345 344 343 341 336 326 317 311 312 318 325 333 337 336 336 340 339 337 342 345 343 338 322 291 261 241 225 212 207 207
295 297 299 299 299 302 307 311 313 313 317 322 325 327 328 329 328 329 332 335 339 341 342 341 340 341 342 343 344 347 349 348 347 346 345 344 343 339 331 321 313 313 320 329 336 338 336 337 340 339 340 343 345 345 342 331 305 271 245 228 216 208 206
291 294 296 297 297 300 305 309 311 314 317 319 320 323 326 326 327 328 330 333 337 340 341 341 340 340 341 342 344 347 349 349 348 347 346 346 345 342 334 324 314 312 320 330 337 339 336 337 339 339 343 346 346 346 345 337 318 284 251 231 218 209 205
290 293 295 295 295 298 303 306 309 312 314 314 315 319 322 323 325 327 329 332 335 338 340 341 339 339 340 342 344 346 348 349 348 348 348 348 347 344 337 327 314 311 320 332 340 341 337 336 337 339 345 349 346 346 347 343 329 299 260 233 219 210 205
290 292 295 293 292 295 300 303 305 308 311 312 312 315 318 319 322 326 329 330 333 337 339 340 339 338 339 342 344 345 347 349 349 350 351 350 349 346 340 330 316 312 323 335 341 341 338 336 334 337 345 350 346 346 348 347 338 314 271 235 218 211 206
287 290 293 292 291 292 295 299 301 303 308 310 309 311 314 315 319 325 328 329 332 335 338 339 338 337 338 341 343 344 346 348 350 351 353 352 350 347 343 334 319 313 326 336 339 341 340 337 332 336 347 352 348 348 351 351 345 330 284 235 216 210 207
286 288 290 291 290 290 291 294 297 300 306 309 307 308 311 313 317 323 327 328 331 334 336 338 337 336 338 341 343 344 346 348 350 353 354 354 352 349 344 338 323 313 328 336 337 341 343 336 333 341 351 353 352 353 357 357 353 343 311 237 213 206 206
285 287 287 289 291 291 290 289 291 296 303 305 304 306 309 311 315 321 324 327 329 332 335 337 336 336 337 340 343 344 345 347 350 354 355 355 354 350 345 341 327 314 327 334 333 341 344 337 338 350 356 354 355 360 3 5 2 357 348 249 210 202 201
284 286 288 290 293 295 294 290 288 292 297 299 300 303 307 309 312 317 321 324 327 331 334 336 335 335 337 340 342 344 345 347 351 354 355 356 355 352 347 341 329 316 323 329 331 342 347 342 346 356 357 356 359 3 7 11 13 12 11 8 197 196 196
284 287 289 291 294 296 297 295 292 291 291 293 296 301 304 307 309 313 317 321 325 329 332 334 334 334 336 339 343 344 346 348 351 353 355 356 356 354 349 343 332 314 314 322 329 341 348 348 354 358 356 357 1 5 8 12 18 21 24 37 146 182 190
283 285 288 291 294 296 298 299 298 294 290 290 293 298 301 304 307 311 315 320 323 326 329 332 333 334 336 340 343 344 346 349 352 353 354 356 357 356 352 346 336 316 303 313 325 338 345 352 1 1 357 356 0 6 10 13 18 24 31 41 86 154 177
281 283 287 291 294 297 298 300 300 295 289 288 291 295 298 301 305 309 315 319 321 324 328 331 332 333 335 340 343 344 347 350 353 353 353 355 357 357 355 349 340 320 296 302 318 332 341 351 2 6 2 358 358 5 16 22 23 25 31 41 64 119 157
278 281 286 290 294 296 298 299 299 294 287 286 290 294 295 298 303 307 313 318 321 323 327 330 331 332 335 340 342 344 347 351 353 353 353 354 357 358 357 353 345 327 296 293 310 324 334 345 358 8 11 7 2 6 18 32 35 33 33 39 55 92 135
276 279 284 289 292 294 296 297 297 294 288 284 288 293 294 295 299 305 311 316 319 322 326 328 330 332 335 339 342 344 348 352 353 353 353 354 356 359 359 356 352 339 306 287 301 317 328 339 351 5 20 26 20 15 19 30 39 44 45 46 54 74 109
275 278 282 287 291 293 295 296 295 294 292 286 285 289 293 294 297 303 309 314 317 321 324 327 329 332 335 339 342 345 348 351 352 354 354 354 356 359 0 359 356 350 327 290 290 308 320 332 344 357 20 38 38 31 29 30 34 43 52 59 64 72 91
273 276 281 285 289 290 292 293 293 294 294 289 283 286 292 294 296 301 307 311 315 320 323 326 329 331 334 338 342 345 347 350 352 354 355 355 356 358 1 1 359 355 344 309 282 295 308 319 337 349 10 36 46 46 48 48 45 46 52 61 69 78 90
272 274 277 282 286 287 288 290 292 294 295 292 283 283 289 292 294 300 306 310 314 319 322 325 328 330 333 338 341 343 346 349 352 354 356 356 356 358 1 3 2 359 352 332 287 283 296 304 320 342 357 22 44 53 60 65 67 67 66 66 71 81 95
273 272 274 278 281 283 284 287 290 292 295 294 285 281 286 291 293 299 305 309 314 318 320 324 327 329 332 337 340 343 346 349 352 355 356 356 356 357 0 3 4 2 357 347 308 273 280 291 297 318 346 6 30 46 58 71 80 85 89 90 89 91 101
273 272 272 274 276 279 282 286 289 291 295 296 286 278 284 290 292 296 303 308 312 316 318 322 326 327 331 336 340 342 346 349 352 355 357 357 356 357 358 2 4 4 0 354 335 280 266 277 284 285 304 344 13 31 44 60 79 91 101 110 114 113 114
270 270 270 271 274 278 282 285 288 291 295 296 285 276 282 289 290 292 300 306 310 314 317 321 324 327 330 336 340 342 345 349 352 355 357 358 357 357 357 360 3 5 3 359 350 313 264 262 271 274 273 280 326 18 32 45 60 78 101 120 130 136 141
267 267 269 271 275 279 282 285 288 292 295 293 282 275 281 287 287 289 298 304 309 313 317 319 322 325 329 335 339 341 344 348 351 354 357 359 358 358 358 358 360 4 6 3 358 342 286 255 258 265 267 262 258 260 21 51 54 64 90 122 140 151 160
265 266 268 272 276 280 283 286 289 292 293 289 278 272 278 284 284 287 296 303 308 312 315 318 321 324 327 333 338 341 342 346 350 353 355 358 359 359 358 357 358 1 5 5 2 355 331 269 248 252 260 262 256 248 235 207 160 113 111 131 150 162 172
263 265 269 274 279 282 284 287 289 290 289 284 273 267 274 281 283 286 294 301 306 309 313 316 319 322 326 332 337 340 341 344 349 352 353 356 358 359 358 357 358 360 2 4 4 1 351 318 259 244 248 256 259 253 242 228 212 196 179 164 163 171 180
263 267 271 277 282 285 287 288 288 287 284 279 268 263 271 279 280 283 291 299 303 307 312 315 318 321 325 331 336 339 340 343 347 351 352 354 357 358 358 358 358 358 360 2 4 4 359 346 305 253 241 244 252 255 249 237 225 215 205 192 183 184 189